[[{"header":{"parameterUnit":"m.s-1","parameterCategory":1,"la1":30.2992,"la2":30.254,"lo1":-89.0895,"lo2":-89.0443,"dy":0.0025,"dx":0.0025,"nx":19,"ny":19,"refTime":"2026-04-07T21:00:00:Z","depth":0,"parameterNumber":2,"parameterNumberName":"U-component_of_WINDS"},"data":[0,0,0,-7.7471,-7.7475,-7.7615,-7.7615,-7.7851,-7.7854,0,0,0,0,0,0,0,0,0,0,0,-7.7466,-7.7469,-7.7471,-7.7475,-7.7614,-7.7615,-7.7851,-7.7854,0,0,0,0,0,0,0,0,0,0,0,-7.7465,-7.7468,-7.7472,-7.7476,-7.7614,-7.7615,-7.785,-7.7724,0,0,0,0,0,0,0,0,0,0,-7.7578,-7.761,-7.7467,-7.7472,-7.7477,-7.7614,-7.7615,-7.7717,-7.7732,-7.7813,0,-7.7896,0,-7.7879,-7.7873,-7.7875,0,0,0,-7.7448,-7.7598,-7.7602,-7.7472,-7.7479,-7.7614,-7.7544,-7.7724,-7.7742,-7.7834,-7.7899,-7.7906,-7.7883,-7.7875,-7.7877,-7.8439,-7.8443,0,0,-7.744,-7.7511,-7.7591,-7.7615,-7.7599,-7.754,-7.7549,-7.7734,-7.781,-7.79,-7.7911,-7.7887,-7.7877,-7.788,-7.8435,-7.844,0,0,0,-7.7436,-7.7507,-7.7505,-7.7607,-7.7628,-7.7544,-7.7555,-7.7802,-7.7795,-7.7913,-7.789,-7.7879,-7.7883,-7.8431,-7.8437,-7.8699,0,0,0,-7.743,-7.7504,-7.7503,-7.7548,-7.7626,-7.7717,-7.762,-7.7782,-7.7801,-7.7889,-7.7879,-7.7885,-7.8426,-7.8434,-7.8682,-7.8811,0,0,0,-7.7445,-7.7505,-7.7538,-7.7552,-7.7614,-7.7712,-7.7716,-7.7785,-7.7789,-7.7875,-7.7886,-7.8424,-7.8433,-7.8667,-7.8786,-7.8978,0,0,0,-7.748,-7.777,-7.7544,-7.7858,-7.7614,-7.7874,-7.7713,-7.7903,-7.8009,-7.7881,-7.8427,-7.8436,-7.8663,-7.8771,-7.8963,-7.9153,-7.9239,0,0,-7.7885,-7.7821,-7.8,-7.7802,-7.812,-7.7846,-7.8202,-7.8231,-7.8175,-7.8354,-7.8366,-7.8688,-7.8784,-7.8975,-7.9696,-7.9765,0,0,0,-7.8153,-7.8282,-7.8351,-7.8455,-7.8484,-7.8519,-7.8486,-7.8496,-7.8644,-7.8282,-7.8807,-7.8862,-7.8971,-7.9059,-7.9117,-7.9206,-7.848,-7.8479,-7.8478,-7.8828,-7.8739,-7.9029,-7.8958,-7.906,-7.9022,-7.9096,-7.9103,-7.8984,-7.911,-7.9163,-7.9611,-7.9716,-7.9759,-7.9853,-7.9256,-7.9257,-7.9258,-7.9258,-7.9413,-7.9582,-7.9416,-7.9637,-7.9542,-7.9726,-7.9701,-7.961,-7.9767,-7.9564,-7.9656,-7.9442,-7.9838,-7.9914,-7.9277,-7.9274,-7.9272,-7.927,-7.9268,-7.9845,-7.991,-7.9918,-8.0056,-8.0173,-8.0089,-8.0248,-8.0154,-8.0068,-8.0159,-8.0203,-8.0198,-8.0181,-8.0186,-8.0188,-8.0189,-8.0191,-8.0192,-8.0193,-8.029,-8.029,-8.0435,-8.049,-8.0542,-8.06,-8.0564,-8.0613,-8.0643,-8.0563,-8.0563,-8.0431,-7.9893,-7.976,-8.0217,-8.0212,-8.0209,-8.0207,-8.0205,-8.0916,-8.0759,-8.0984,-8.1037,-8.1091,-8.1212,-8.1091,-8.1199,-8.1226,-8.1307,-8.1155,-8.0773,-8.07,-8.0653,-8.0542,-8.1174,-8.1174,-8.1174,-8.1174,-8.128,-8.1234,-8.1441,-8.1532,-8.161,-8.1522,-8.1777,-8.1752,-8.17,-8.1711,-8.1606,-8.145,-8.1406,-8.136,-8.1298,-8.1192,-8.1975,-8.1976,-8.1977,-8.1659,-8.1615,-8.1851,-8.1798,-8.1833,-8.1866,-8.2102,-8.2212,-8.2121,-8.2007,-8.1717,-8.1683,-8.1431,-8.1354,-8.1235,-8.114,-8.0944,0,0]},{"header":{"parameterUnit":"m.s-1","parameterCategory":1,"la1":30.2992,"la2":30.254,"lo1":-89.0895,"lo2":-89.0443,"dy":0.0025,"dx":0.0025,"nx":19,"ny":19,"refTime":"2026-04-07T21:00:00:Z","depth":0,"parameterNumber":3,"parameterNumberName":"V-component_of_WINDS"},"data":[0,0,0,-0.9673,-0.9674,-0.9706,-0.9706,-0.9728,-0.9728,0,0,0,0,0,0,0,0,0,0,0,-0.9654,-0.9654,-0.9673,-0.9674,-0.9705,-0.9706,-0.9728,-0.9728,0,0,0,0,0,0,0,0,0,0,0,-0.9654,-0.9654,-0.9653,-0.9674,-0.9705,-0.9706,-0.9728,-0.971,0,0,0,0,0,0,0,0,0,0,-0.9682,-0.9655,-0.9654,-0.9653,-0.9674,-0.9705,-0.9706,-0.9709,-0.9711,-0.9705,0,-0.9699,0,-0.9714,-0.9728,-0.9728,0,0,0,-0.9681,-0.9653,-0.9671,-0.9653,-0.9674,-0.9705,-0.9693,-0.971,-0.9712,-0.9707,-0.97,-0.9701,-0.9714,-0.9728,-0.9728,-0.9675,-0.9675,0,0,-0.9679,-0.9654,-0.967,-0.9672,-0.9668,-0.9692,-0.9694,-0.9712,-0.9701,-0.97,-0.9702,-0.9715,-0.9728,-0.9728,-0.9676,-0.9675,0,0,0,-0.9669,-0.9652,-0.967,-0.967,-0.9678,-0.9693,-0.9695,-0.97,-0.9708,-0.9702,-0.9715,-0.9728,-0.9728,-0.9676,-0.9675,-0.9621,0,0,0,-0.9668,-0.9647,-0.9669,-0.9654,-0.9677,-0.969,-0.9683,-0.9707,-0.971,-0.9715,-0.9728,-0.9728,-0.9677,-0.9676,-0.9624,-0.9598,0,0,0,-0.9655,-0.9645,-0.9647,-0.9652,-0.9666,-0.969,-0.9699,-0.9708,-0.9717,-0.9728,-0.9728,-0.9678,-0.9676,-0.9627,-0.9603,-0.9575,0,0,0,-0.9633,-0.9599,-0.9645,-0.9612,-0.9665,-0.9658,-0.97,-0.9695,-0.9698,-0.9728,-0.9677,-0.9676,-0.9627,-0.9606,-0.9578,-0.9545,-0.953,0,0,-0.9576,-0.9591,-0.9573,-0.9616,-0.9593,-0.9655,-0.9624,-0.965,-0.9674,-0.9673,-0.9672,-0.9623,-0.9603,-0.9575,-0.9459,-0.9447,0,0,0,-0.9546,-0.9532,-0.9532,-0.9534,-0.9554,-0.9568,-0.9602,-0.9611,-0.9612,-0.9669,-0.9608,-0.9597,-0.9582,-0.9567,-0.9556,-0.9543,-0.9669,-0.9669,-0.9669,-0.9427,-0.946,-0.9431,-0.9467,-0.9468,-0.9503,-0.9506,-0.9525,-0.9558,-0.9543,-0.9542,-0.9467,-0.9449,-0.9442,-0.9428,-0.953,-0.953,-0.953,-0.9529,-0.9342,-0.9327,-0.9372,-0.9359,-0.9393,-0.9383,-0.9415,-0.9439,-0.9433,-0.9472,-0.946,-0.9496,-0.9427,-0.9416,-0.9526,-0.9526,-0.9527,-0.9527,-0.9527,-0.9265,-0.9263,-0.9276,-0.9281,-0.9281,-0.932,-0.9311,-0.9344,-0.9374,-0.9362,-0.9362,-0.9363,-0.9365,-0.9361,-0.936,-0.936,-0.936,-0.936,-0.936,-0.9178,-0.9195,-0.9184,-0.9202,-0.9206,-0.9216,-0.9251,-0.9256,-0.9269,-0.9293,-0.9293,-0.9325,-0.9416,-0.9436,-0.9356,-0.9356,-0.9357,-0.9357,-0.9357,-0.9074,-0.9103,-0.9086,-0.9091,-0.9113,-0.9109,-0.9152,-0.9158,-0.9167,-0.9161,-0.9197,-0.926,-0.9278,-0.9286,-0.9303,-0.9192,-0.9192,-0.9192,-0.9192,-0.9005,-0.9019,-0.9008,-0.9013,-0.9021,-0.9057,-0.9035,-0.9061,-0.9093,-0.91,-0.9121,-0.9147,-0.9155,-0.9167,-0.9178,-0.9194,-0.9059,-0.9059,-0.9058,-0.8942,-0.8957,-0.8932,-0.8965,-0.8984,-0.9,-0.8979,-0.898,-0.9023,-0.9054,-0.9105,-0.911,-0.9153,-0.9166,-0.9194,-0.9211,-0.924,0,0]}]]